DECAYED

STARLINK-32563, 61934 (Decayed)

Orbit data source: Space-Track

STARLINK-32563, 61934 was a payload satellite owned by SpaceX/Seattle (US) in LEO that was launched on Mon, 11 Nov 2024 UTC via an FALCON 9 launch vehicle from the Air Force Eastern Test Range (AFETR). Payload-class satellites include a variety of spacecraft equipped with specific instruments for various scientific and technological missions. These include communications satellites like Starlink; space stations such as the ISS; scientific satellites like the Hubble; Earth observation satellites from companies like Planet Labs, Umbra, and HawkEye 360; GPS; miniature CubeSats for education and research; and military/defense satellites.

Not visible in the next 10 days
Identifier
61934, 2024-207Y
Orbit
Decayed
Country
Flag of USUS
Related business
Manufacturer
SpaceX/Seattle
Mission
Decayed Commercial Communications
Bus & Motor
STARLINK V2M, Unknown motor
Mass
730 kg wet, ~700 kg dry
Launch date (UTC)
2024-11-11 (1 year ago)
Launch vehicle
FALCON 9
Launch site
Air Force Eastern Test Range (AFETR)
Object type
Payload
Rocket body
Debris
Shape & HBR
Box + 2 Pan, 17.7 m
Radar Cross Section
33.884 m², Large (>1 m²)

Expand to show TLE details & history
Last TLE update: 6 months ago

TLE from 6 months ago
0 STARLINK-32563
1 61934U 24207Y   25153.18919981  .06438491  12932+0  89042-2 0  9996
2 61934  42.9825  53.2152 0020687 241.5543 245.3639 16.11080850 32388
Epoch: 2025-06-02T04:32Z
TLE epoch observation values (Epoch: 2025-06-02T04:32:26.863Z)
Latitude
33.26518°
Longitude
-130.2206°
Altitude
250.703 km
Speed
7.758 km/s
True Right ascension
12h 35m 10s
True Declination
33° 05' 44"
Sunlit
Object was in daylight at epoch
Visualization orbit readout
Latitude
Unknown
Longitude
Unknown
Altitude
Unknown
Speed
Unknown
Apparent Right ascension
Unknown
Apparent Declination
Unknown
Sunlit
N/A
Visualization observer readout
Local Sidereal Time
04:17:53
Azimuth
Unknown
Elevation
Unknown
Doppler factor
Unknown
Orbital elements
Apogee altitude
259.601 km
Perigee altitude
232.195 km
Semi-major axis
6,624.035 km
Eccentricity
0.00207
Inclination
42.9825°
RAAN
53.2152°
Arg. of periapsis
241.5543°
True anomaly
245.14866°
Mean anomaly
245.3639°
Eccentric anomaly
245.25625°
Mean motion
4.02587 °/min
Orbital period
89.42 mins
BSTAR
0.0089042
Loading maneuver chart data...
Computing Atmospheric mass density...
Loading historical data...
Loading historical data...
Loading historical data...
Loading historical data...
Loading historical data...
Loading historical data...
Loading historical data...

Documentation

Showing up to 5 results
|